Hammond, LA

1:55 AM CST on February 27, 2017 (GMT -0600)
Hammond Municipal

Weather History for KHDC - June, 2013

Change the Weather History Date:

Friday, June 14, 2013

  Actual Average (KMSY) Record (KMSY)
Temperature  
Mean Temperature 86 °F -  
Max Temperature 96 °F 90 °F 97 °F (1963)
Min Temperature 75 °F 71 °F 63 °F (1988)
Cooling Degree Days 20    
Growing Degree Days 36 (Base 50)    
Moisture  
Dew Point 71 °F    
Average Humidity 65    
Maximum Humidity 83    
Minimum Humidity 44    
Precipitation  
Precipitation 0.00 in - - ()
Sea Level Pressure  
Sea Level Pressure 29.93 in    
Wind  
Wind Speed 4 mph (NNW)    
Max Wind Speed 13 mph    
Max Gust Speed 16 mph    
Visibility 10 miles    
Events Thunderstorm    
Averages and records for this station are not official NWS values.
T = Trace of Precipitation, MM = Missing Value Source: NWS Daily Summary

Daily Weather History Graph

Daily Weather History Graph

Search for Another Location

Airport or City:

Trip Planner

Search our weather history database for the weather conditions in past years. The results will help you decide how hot, cold, wet, or windy it might be!

Date:

Astronomy

Jun. 14, 2013 Rise Set
Actual Time 5:58 AM CDT 8:05 PM CDT
Civil Twilight 5:31 AM CDT 8:32 PM CDT
Nautical Twilight 4:57 AM CDT 9:06 PM CDT
Astronomical Twilight 4:21 AM CDT 9:42 PM CDT
Moon 11:14 AM CDT (6/14) No Moon Set
Length of Visible Light 15h 01m
Length of Day
14h 06m
Waxing Crescent, 30% of the Moon is Illuminated
Jun 14
Waxing Crescent
Jun 16
First Quarter
Jun 23
Full
Jun 29
Last Quarter
Jul 8
New

Hourly Weather History & Observations

Time (CDT) Temp. Heat Index Dew Point Humidity Pressure Visibility Wind Dir Wind Speed Gust Speed Precip Events Conditions
12:15 AM 77.0 °F - 71.6 °F 83% 29.93 in 10.0 mi Calm Calm - N/A   Clear
12:35 AM 78.8 °F - 71.6 °F 78% 29.94 in 10.0 mi Calm Calm - N/A   Clear
12:55 AM 78.8 °F - 71.6 °F 78% 29.95 in 10.0 mi Calm Calm - N/A   Clear
1:15 AM 78.8 °F - 71.6 °F 78% 29.95 in 10.0 mi Calm Calm - N/A   Clear
1:35 AM 78.8 °F - 71.6 °F 78% 29.94 in 10.0 mi Calm Calm - N/A Thunderstorm Clear
1:55 AM 77.0 °F - 71.6 °F 83% 29.95 in 10.0 mi Calm Calm - N/A Thunderstorm Clear
2:15 AM 77.0 °F - 71.6 °F 83% 29.95 in 10.0 mi Calm Calm - N/A   Clear
2:35 AM 77.0 °F - 71.6 °F 83% 29.93 in 10.0 mi Calm Calm - N/A   Clear
2:55 AM 78.8 °F - 71.6 °F 78% 29.94 in 10.0 mi Calm Calm - N/A   Scattered Clouds
3:15 AM 78.8 °F - 71.6 °F 78% 29.94 in 10.0 mi Calm Calm - N/A   Scattered Clouds
3:35 AM 77.0 °F - 71.6 °F 83% 29.94 in 10.0 mi Calm Calm - N/A Thunderstorm Clear
3:55 AM 78.8 °F - 73.4 °F 83% 29.94 in 10.0 mi Calm Calm - N/A   Clear
4:15 AM 78.8 °F - 73.4 °F 83% 29.92 in 10.0 mi West 6.9 mph - N/A   Clear
4:35 AM 78.8 °F - 73.4 °F 83% 29.91 in 10.0 mi WSW 9.2 mph - N/A   Clear
4:55 AM 78.8 °F - 73.4 °F 83% 29.91 in 10.0 mi West 8.1 mph - N/A   Clear
5:15 AM 78.8 °F - 73.4 °F 83% 29.90 in 10.0 mi West 6.9 mph - N/A   Clear
5:35 AM 78.8 °F - 73.4 °F 83% 29.91 in 10.0 mi West 6.9 mph - N/A   Clear
5:55 AM 78.8 °F - 73.4 °F 83% 29.92 in 10.0 mi West 4.6 mph - N/A   Clear
6:15 AM 78.8 °F - 73.4 °F 83% 29.93 in 10.0 mi WNW 3.5 mph - N/A   Clear
6:35 AM 78.8 °F - 73.4 °F 83% 29.94 in 10.0 mi West 4.6 mph - N/A   Clear
6:55 AM 78.8 °F - 73.4 °F 83% 29.95 in 10.0 mi WNW 3.5 mph - N/A Thunderstorm Mostly Cloudy
7:15 AM 78.8 °F - 73.4 °F 83% 29.95 in 10.0 mi WNW 5.8 mph - N/A   Mostly Cloudy
7:35 AM 80.6 °F 85.4 °F 73.4 °F 79% 29.96 in 10.0 mi WNW 4.6 mph - N/A   Mostly Cloudy
7:55 AM 82.4 °F 89.5 °F 75.2 °F 79% 29.96 in 10.0 mi WNW 4.6 mph - N/A   Scattered Clouds
8:15 AM 82.4 °F 88.2 °F 73.4 °F 74% 29.96 in 10.0 mi West 5.8 mph - N/A   Clear
8:35 AM 84.2 °F 90.9 °F 73.4 °F 70% 29.96 in 10.0 mi WNW 5.8 mph - N/A   Scattered Clouds
8:55 AM 86.0 °F 93.4 °F 73.4 °F 66% 29.96 in 10.0 mi NW 8.1 mph - N/A   Clear
9:15 AM 86.0 °F 93.4 °F 73.4 °F 66% 29.96 in 10.0 mi NNW 6.9 mph - N/A   Scattered Clouds
9:35 AM 87.8 °F 95.6 °F 73.4 °F 62% 29.96 in 10.0 mi NNW 6.9 mph - N/A   Scattered Clouds
9:55 AM 87.8 °F 97.6 °F 75.2 °F 66% 29.95 in 10.0 mi NW 4.6 mph - N/A   Clear
10:15 AM 89.6 °F 98.2 °F 73.4 °F 59% 29.95 in 10.0 mi NW 10.4 mph - N/A   Clear
10:35 AM 89.6 °F 98.2 °F 73.4 °F 59% 29.94 in 10.0 mi NW 8.1 mph 16.1 mph N/A   Clear
10:55 AM 91.4 °F 100.1 °F 73.4 °F 55% 29.94 in 10.0 mi NNW 10.4 mph - N/A   Scattered Clouds
11:15 AM 91.4 °F 102.5 °F 75.2 °F 59% 29.94 in 10.0 mi WNW 9.2 mph - N/A   Scattered Clouds
11:35 AM 91.4 °F 102.5 °F 75.2 °F 59% 29.94 in 10.0 mi NW 9.2 mph - N/A   Mostly Cloudy
11:55 AM 93.2 °F 102.4 °F 73.4 °F 52% 29.94 in 10.0 mi NW 6.9 mph - N/A   Scattered Clouds
12:15 PM 91.4 °F 100.1 °F 73.4 °F 55% 29.94 in 10.0 mi NNW 8.1 mph - N/A   Scattered Clouds
12:35 PM 95.0 °F 107.4 °F 75.2 °F 53% 29.93 in 10.0 mi NW 6.9 mph - N/A   Scattered Clouds
12:55 PM 93.2 °F 102.4 °F 73.4 °F 52% 29.92 in 10.0 mi North 4.6 mph - N/A   Scattered Clouds
1:15 PM 93.2 °F 102.4 °F 73.4 °F 52% 29.92 in 10.0 mi North 8.1 mph - N/A   Mostly Cloudy
1:35 PM 95.0 °F 104.5 °F 73.4 °F 49% 29.92 in 10.0 mi North 8.1 mph - N/A   Scattered Clouds
1:55 PM 95.0 °F 104.5 °F 73.4 °F 49% 29.91 in 10.0 mi NW 5.8 mph - N/A   Scattered Clouds
2:15 PM 95.0 °F 104.5 °F 73.4 °F 49% 29.91 in 10.0 mi NNW 9.2 mph - N/A   Scattered Clouds
2:35 PM 96.8 °F 105.1 °F 71.6 °F 44% 29.91 in 10.0 mi NNW 10.4 mph 16.1 mph N/A   Scattered Clouds
2:55 PM 96.8 °F 105.1 °F 71.6 °F 44% 29.90 in 10.0 mi NNW 12.7 mph 16.1 mph N/A   Scattered Clouds
3:15 PM 95.0 °F 103.2 °F 71.6 °F 47% 29.90 in 10.0 mi NNW 10.4 mph - N/A   Clear
3:35 PM 95.0 °F 101.3 °F 69.8 °F 44% 29.90 in 10.0 mi North 9.2 mph - N/A   Clear
3:55 PM 95.0 °F 103.2 °F 71.6 °F 47% 29.90 in 10.0 mi NNE 8.1 mph - N/A   Scattered Clouds
4:15 PM 95.0 °F 103.2 °F 71.6 °F 47% 29.90 in 10.0 mi North 10.4 mph - N/A   Scattered Clouds
4:35 PM 95.0 °F 101.3 °F 69.8 °F 44% 29.89 in 10.0 mi North 8.1 mph - N/A   Clear
4:55 PM 95.0 °F 101.3 °F 69.8 °F 44% 29.89 in 10.0 mi North 9.2 mph - N/A   Clear
5:15 PM 95.0 °F 101.3 °F 69.8 °F 44% 29.89 in 10.0 mi North 9.2 mph - N/A   Clear
5:35 PM 93.2 °F 97.7 °F 68.0 °F 44% 29.89 in 10.0 mi NNE 6.9 mph - N/A   Clear
5:55 PM 93.2 °F 98.8 °F 69.8 °F 46% 29.89 in 10.0 mi North 9.2 mph - N/A   Clear
6:15 PM 93.2 °F 97.7 °F 68.0 °F 44% 29.89 in 10.0 mi North 6.9 mph - N/A   Clear
6:35 PM 91.4 °F 95.4 °F 68.0 °F 46% 29.90 in 10.0 mi North 5.8 mph - N/A   Clear
6:55 PM 91.4 °F 95.4 °F 68.0 °F 46% 29.90 in 10.0 mi NNE 8.1 mph - N/A   Clear
7:15 PM 89.6 °F 92.2 °F 66.2 °F 46% 29.90 in 10.0 mi NNE 5.8 mph - N/A   Clear
7:35 PM 87.8 °F 91.4 °F 68.0 °F 52% 29.91 in 10.0 mi NNE 3.5 mph - N/A   Clear
7:55 PM 86.0 °F 89.4 °F 68.0 °F 55% 29.92 in 10.0 mi NE 3.5 mph - N/A   Clear
8:15 PM 84.2 °F 86.6 °F 66.2 °F 55% 29.92 in 10.0 mi NE 4.6 mph - N/A   Clear
8:35 PM 82.4 °F 84.6 °F 66.2 °F 58% 29.93 in 10.0 mi Calm Calm - N/A   Clear
8:55 PM 82.4 °F 85.4 °F 68.0 °F 62% 29.93 in 10.0 mi NNE 3.5 mph - N/A   Clear
9:15 PM 77.0 °F - 69.8 °F 78% 29.94 in 10.0 mi North 3.5 mph - N/A   Clear
9:35 PM 78.8 °F - 68.0 °F 69% 29.95 in 10.0 mi North 3.5 mph - N/A   Clear
9:55 PM 78.8 °F - 66.2 °F 65% 29.96 in 10.0 mi North 3.5 mph - N/A   Clear
10:15 PM 77.0 °F - 68.0 °F 74% 29.95 in 10.0 mi North 4.6 mph - N/A   Clear
10:35 PM 75.2 °F - 68.0 °F 78% 29.95 in 10.0 mi NNE 4.6 mph - N/A   Clear
10:55 PM 77.0 °F - 66.2 °F 69% 29.96 in 10.0 mi Calm Calm - N/A   Clear
11:15 PM 77.0 °F - 68.0 °F 74% 29.96 in 10.0 mi NNE 3.5 mph - N/A   Clear
11:35 PM 77.0 °F - 66.2 °F 69% 29.95 in 10.0 mi NE 3.5 mph - N/A   Clear
11:55 PM 77.0 °F - 66.2 °F 69% 29.97 in 10.0 mi NE 3.5 mph - N/A   Clear